Flag for Tunisia Weather past 2 weeks in Tunis, Tunisia

Now
77 °F

Clear.


Feels Like: 79 °F
Forecast: 73 / 92 °F
Wind: 12 mph from Northwest

Location: Tunis-Carthage

Current Time: Aug 21, 2014 at 9:31:11 PM

Latest Report: Aug 21, 2014 at 9:00 PM


Visibility: 10 mi

Pressure: 29.98 "Hg

Humidity: 74%

Dew point: 68 °F

Location of TunisLocation

Historic Weather in Tunis — Graph

°F

Tunis temperature yesterday

Maximum temperature yesterday: 93 °F (at 12:00 PM)
Minimum temperature yesterday: 77 °F (at 5:30 AM)
Average temperature yesterday: 83 °F

Past Weeks' High & Low Weather Summary

 TemperatureHumidityPressure
High108 °F (Aug 13, 1:00 PM)94% (Aug 12, 3:30 AM)30.09 "Hg (Aug 12, 3:30 AM)
Low68 °F (Aug 18, 4:00 AM)20% (Aug 19, 1:30 PM)29.77 "Hg (Aug 13, 11:30 AM)
Average83 °F60%29.95 "Hg
* Reported Aug 6 8:00 PM — Aug 21 8:30 PM, Tunis, Weather by CustomWeather, © 2014

Note: Actual official high and low records may vary slightly from our data, if they occured in-between our weather recording intervals... More about our weather records

Advertising

Tunis weather history for previous 24 hours

 ConditionsComfort  
Time TempWeatherWind HumidityBarometerVisibility
8:30 PM
Aug 21
79 °FClear.9 mph70%29.98 "Hg10 mi
8:00 PM79 °FClear.9 mph65%29.98 "Hg10 mi
7:30 PM81 °FClear.9 mph62%29.95 "Hg10 mi
7:00 PM81 °FSunny.9 mph62%29.95 "Hg10 mi
6:30 PM82 °FSunny.12 mph55%29.95 "Hg10 mi
6:00 PM84 °FSunny.12 mph55%29.95 "Hg10 mi
5:30 PM84 °FPassing clouds.12 mph58%29.95 "HgN/A
5:00 PM86 °FSunny.10 mph55%29.95 "Hg10 mi
4:30 PM86 °FSunny.12 mph55%29.95 "Hg10 mi
4:00 PM86 °FSunny.13 mph59%29.95 "Hg10 mi
3:30 PM88 °FPassing clouds.14 mph52%29.95 "HgN/A
3:00 PM88 °FSunny.14 mph52%29.95 "Hg10 mi
2:30 PM88 °FPassing clouds.14 mph52%29.95 "HgN/A
2:00 PM90 °FPassing clouds.12 mph49%29.95 "HgN/A
1:00 PM91 °FPassing clouds.8 mph44%29.98 "HgN/A
12:30 PM90 °FPassing clouds.6 mph49%29.98 "HgN/A
12:00 PM91 °FPassing clouds.6 mph44%29.98 "HgN/A
11:30 AM90 °FPassing clouds.5 mph46%29.98 "HgN/A
11:00 AM90 °FPassing clouds.7 mph43%30.01 "HgN/A
10:30 AM88 °FPassing clouds.3 mph49%29.98 "HgN/A
10:00 AM86 °FPassing clouds.3 mph59%29.98 "HgN/A
9:30 AM84 °FPassing clouds.6 mph58%29.98 "HgN/A
9:00 AM84 °FPassing clouds.7 mph58%29.98 "HgN/A
8:30 AM82 °FPassing clouds.7 mph66%29.98 "HgN/A
8:00 AM79 °FPassing clouds.7 mph74%29.98 "HgN/A
7:30 AM77 °FPassing clouds.No wind79%29.98 "HgN/A
7:00 AM77 °FPassing clouds.No wind79%29.98 "HgN/A
6:00 AM75 °FPassing clouds.3 mph83%29.98 "HgN/A
5:30 AM75 °FPassing clouds.No wind83%29.98 "HgN/A
4:50 AM75 °FPassing clouds.No wind83%29.98 "HgN/A
4:00 AM75 °FPassing clouds.5 mph83%29.98 "HgN/A
3:30 AM77 °FPassing clouds.3 mph79%29.98 "HgN/A
2:30 AM77 °FPassing clouds.7 mph79%29.98 "HgN/A
2:00 AM77 °FPassing clouds.7 mph79%29.98 "HgN/A
1:30 AM77 °FPassing clouds.No wind79%29.98 "HgN/A
12:30 AM77 °FPassing clouds.No wind74%29.98 "HgN/A
12:00 AM77 °FPassing clouds.No wind74%29.98 "HgN/A
11:30 PM
Aug 20
77 °FPassing clouds.No wind79%29.98 "HgN/A
11:00 PM77 °FPassing clouds.No wind79%29.98 "HgN/A
10:30 PM79 °FPassing clouds.No wind74%29.98 "HgN/A
10:00 PM79 °FPassing clouds.No wind79%29.98 "HgN/A
9:30 PM79 °FPassing clouds.6 mph84%29.98 "HgN/A
9:00 PM79 °FPassing clouds.7 mph84%29.98 "HgN/A
Weather by CustomWeather, © 2014

See weather overviewHow to use our weather pages